Weather History for KORB - October, 2012

Change the Weather History Date:

Saturday, October 13, 2012

  Actual Average Record
Temperature  
Mean Temperature 40 °F -  
Max Temperature 50 °F 50 °F 66 °F (2000)
Min Temperature 30 °F 32 °F 24 °F (2002)
Degree Days  
Heating Degree Days 25    
Moisture  
Dew Point 29 °F    
Average Humidity 60    
Maximum Humidity 93    
Minimum Humidity 34    
Precipitation  
Precipitation 0.00 in - - ()
Sea Level Pressure  
Sea Level Pressure 29.76 in    
Wind  
Wind Speed 6 mph (SSE)    
Max Wind Speed 13 mph    
Max Gust Speed 20 mph    
Visibility 10 miles    
Events      
Averages and records for this station are not official NWS values.
T = Trace of Precipitation, MM = Missing Value Source: NWS Daily Summary

Daily Weather History Graph

Daily Weather History Graph

Search for Another Location

Airport or City:

Trip Planner

Search our weather history database for the weather conditions in past years. The results will help you decide how hot, cold, wet, or windy it might be!

Date:

Astronomy

Oct. 13, 2012 Rise Set
Actual Time 7:28 AM CDT 6:25 PM CDT
Civil Twilight 6:57 AM CDT 6:56 PM CDT
Nautical Twilight 6:21 AM CDT 7:32 PM CDT
Astronomical Twilight 5:45 AM CDT 8:08 PM CDT
Moon 5:12 AM CDT (10/13) 5:13 PM CDT (10/13)
Length of Visible Light 11h 59m
Length of Day
10h 57m
Waning Crescent, 5% of the Moon is Illuminated
Oct 13
Waning Crescent
Oct 15
New
Oct 21
First Quarter
Oct 29
Full
Nov 6
Last Quarter

Hourly Weather History & Observations

Time (CDT) Temp. Windchill Dew Point Humidity Pressure Visibility Wind Dir Wind Speed Gust Speed Precip Events Conditions
12:13 AM 39.2 °F 33.0 °F 14.0 °F 36% 29.94 in 10.0 mi SSE 9.2 mph - N/A   Clear
12:33 AM 41.0 °F 34.7 °F 15.8 °F 36% 29.94 in 10.0 mi SSE 10.4 mph - N/A   Scattered Clouds
12:53 AM 42.8 °F 36.2 °F 15.8 °F 34% 29.93 in 10.0 mi SSE 12.7 mph 17.3 mph N/A   Overcast
1:13 AM 42.8 °F 36.6 °F 15.8 °F 34% 29.92 in 10.0 mi SSE 11.5 mph 19.6 mph N/A   Overcast
2:13 AM 42.8 °F 36.2 °F 15.8 °F 34% 29.89 in 10.0 mi SSE 12.7 mph 18.4 mph N/A   Overcast
2:33 AM 42.8 °F 36.6 °F 15.8 °F 34% 29.88 in 10.0 mi SSE 11.5 mph 18.4 mph N/A   Overcast
2:53 AM 42.8 °F 39.3 °F 15.8 °F 34% 29.87 in 10.0 mi SSE 5.8 mph 16.1 mph N/A   Overcast
3:13 AM 42.8 °F 37.0 °F 15.8 °F 34% 29.86 in 10.0 mi SSE 10.4 mph - N/A   Overcast
3:33 AM 42.8 °F 37.5 °F 17.6 °F 36% 29.85 in 10.0 mi SSE 9.2 mph - N/A   Overcast
3:53 AM 42.8 °F 36.6 °F 17.6 °F 36% 29.84 in 10.0 mi SSE 11.5 mph 16.1 mph N/A   Overcast
4:13 AM 42.8 °F 37.5 °F 19.4 °F 39% 29.82 in 10.0 mi SSE 9.2 mph - N/A   Overcast
4:33 AM 42.8 °F 37.0 °F 19.4 °F 39% 29.81 in 10.0 mi SSE 10.4 mph - N/A   Overcast
4:53 AM 41.0 °F 34.7 °F 19.4 °F 42% 29.80 in 10.0 mi SSE 10.4 mph - N/A   Overcast
5:13 AM 41.0 °F 35.8 °F 19.4 °F 42% 29.78 in 10.0 mi SE 8.1 mph - N/A   Mostly Cloudy
5:33 AM 41.0 °F 37.1 °F 21.2 °F 45% 29.78 in 10.0 mi SE 5.8 mph - N/A   Mostly Cloudy
5:53 AM 39.2 °F 35.0 °F 21.2 °F 49% 29.77 in 10.0 mi SE 5.8 mph - N/A   Mostly Cloudy
6:13 AM 37.4 °F 32.1 °F 21.2 °F 52% 29.77 in 10.0 mi SE 6.9 mph - N/A   Clear
6:33 AM 37.4 °F 31.4 °F 21.2 °F 52% 29.77 in 10.0 mi SE 8.1 mph - N/A   Clear
6:54 AM 37.4 °F 31.4 °F 23.0 °F 56% 29.77 in 10.0 mi SE 8.1 mph - N/A   Scattered Clouds
7:13 AM 39.2 °F 33.6 °F 24.8 °F 56% 29.77 in 10.0 mi SE 8.1 mph - N/A   Mostly Cloudy
7:34 AM 41.0 °F 36.4 °F 24.8 °F 53% 29.76 in 10.0 mi SE 6.9 mph - N/A   Overcast
7:53 AM 41.0 °F 37.1 °F 24.8 °F 53% 29.76 in 10.0 mi SE 5.8 mph - N/A   Overcast
8:14 AM 42.8 °F 39.3 °F 26.6 °F 53% 29.76 in 10.0 mi SE 5.8 mph - N/A   Overcast
8:33 AM 42.8 °F - 26.6 °F 53% 29.75 in 10.0 mi Calm Calm - N/A   Overcast
8:54 AM 42.8 °F - 28.4 °F 57% 29.76 in 10.0 mi Calm Calm - N/A   Overcast
9:13 AM 42.8 °F - 28.4 °F 57% 29.74 in 10.0 mi Calm Calm - N/A   Overcast
9:33 AM 44.6 °F - 28.4 °F 53% 29.74 in 10.0 mi Calm Calm - N/A   Overcast
9:53 AM 44.6 °F 41.4 °F 30.2 °F 57% 29.74 in 10.0 mi SSE 5.8 mph - N/A   Overcast
10:13 AM 44.6 °F - 30.2 °F 57% 29.75 in 10.0 mi Calm Calm - N/A   Mostly Cloudy
10:33 AM 46.4 °F - 32.0 °F 57% 29.74 in 10.0 mi Calm Calm - N/A   Mostly Cloudy
10:54 AM 46.4 °F - 33.8 °F 62% 29.74 in 10.0 mi Calm Calm - N/A   Scattered Clouds
11:33 AM 46.4 °F - 33.8 °F 62% 29.73 in 10.0 mi Calm Calm - N/A   Clear
11:53 AM 46.4 °F - 35.6 °F 66% 29.73 in 10.0 mi Calm Calm - N/A   Scattered Clouds
12:14 PM 46.4 °F - 35.6 °F 66% 29.72 in 10.0 mi Calm Calm - N/A   Scattered Clouds
12:33 PM 48.2 °F - 35.6 °F 62% 29.72 in 10.0 mi Calm Calm - N/A   Clear
12:53 PM 48.2 °F - 35.6 °F 62% 29.70 in 10.0 mi Calm Calm - N/A   Clear
1:13 PM 48.2 °F - 37.4 °F 66% 29.70 in 10.0 mi Calm Calm - N/A   Clear
1:33 PM 48.2 °F - 37.4 °F 66% 29.69 in 10.0 mi Calm Calm - N/A   Scattered Clouds
1:53 PM 48.2 °F - 37.4 °F 66% 29.68 in 10.0 mi Calm Calm - N/A   Scattered Clouds
2:13 PM 50.0 °F - 37.4 °F 62% 29.67 in 10.0 mi Calm Calm - N/A   Clear
2:33 PM 50.0 °F - 37.4 °F 62% 29.68 in 10.0 mi Calm Calm - N/A   Scattered Clouds
2:53 PM 50.0 °F - 37.4 °F 62% 29.68 in 10.0 mi Calm Calm - N/A   Scattered Clouds
3:14 PM 50.0 °F - 37.4 °F 62% 29.68 in 10.0 mi Calm Calm - N/A   Mostly Cloudy
3:33 PM 50.0 °F - 37.4 °F 62% 29.69 in 10.0 mi Calm Calm - N/A   Mostly Cloudy
3:53 PM 50.0 °F - 37.4 °F 62% 29.69 in 10.0 mi Calm Calm - N/A   Mostly Cloudy
4:13 PM 50.0 °F - 37.4 °F 62% 29.69 in 10.0 mi Calm Calm - N/A   Mostly Cloudy
4:54 PM 48.2 °F - 37.4 °F 66% 29.70 in 10.0 mi Calm Calm - N/A   Overcast
5:13 PM 48.2 °F - 37.4 °F 66% 29.70 in 10.0 mi Calm Calm - N/A   Overcast
5:33 PM 48.2 °F - 39.2 °F 71% 29.71 in 10.0 mi Calm Calm - N/A   Overcast
5:53 PM 48.2 °F - 37.4 °F 66% 29.71 in 10.0 mi Calm Calm - N/A   Overcast
6:13 PM 48.2 °F - 39.2 °F 71% 29.71 in 10.0 mi Calm Calm - N/A   Mostly Cloudy
6:33 PM 46.4 °F - 37.4 °F 71% 29.72 in 10.0 mi Calm Calm - N/A   Scattered Clouds
7:13 PM 44.6 °F - 37.4 °F 76% 29.73 in 10.0 mi Calm Calm - N/A   Clear
7:53 PM 41.0 °F - 37.4 °F 87% 29.74 in 10.0 mi Calm Calm - N/A   Clear
8:13 PM 39.2 °F - 35.6 °F 87% 29.74 in 10.0 mi Calm Calm - N/A   Clear
8:33 PM 39.2 °F - 37.4 °F 93% 29.74 in 10.0 mi Calm Calm - N/A   Clear
9:13 PM 35.6 °F - 33.8 °F 93% 29.76 in 3.0 mi Calm Calm - N/A   Clear
9:33 PM 35.6 °F - 33.8 °F 93% 29.77 in 5.0 mi Calm Calm - N/A   Clear
9:53 PM 35.6 °F - 33.8 °F 93% 29.77 in 4.0 mi Calm Calm - N/A   Clear
10:13 PM 35.6 °F - 33.8 °F 93% 29.77 in 2.5 mi Calm Calm - N/A   Clear
11:13 PM 30.2 °F - 28.4 °F 93% 29.79 in 5.0 mi Calm Calm - N/A   Clear
11:33 PM 32.0 °F - 30.2 °F 93% 29.80 in 7.0 mi Calm Calm - N/A   Clear